Regional Weather Roundup
Issued by NWS

Home | Current Version | Previous Version | Graphics & Text | Print | Product List | Glossary On
Versions: 1 2 3 4 5 6 7 8 9 10 11 12 13 14 15 16 17 18 19 20 21 22 23 24 25 26 27 28 29 30 31 32 33 34 35 36 37 38 39 40 41 42 43 44 45 46 47 48 49 50
730
ASUS44 KJAN 281703
RWRMS

MISSISSIPPI HOURLY WEATHER ROUNDUP
NATIONAL WEATHER SERVICE JACKSON MS
1100 AM CST SAT FEB 28 2015

NOTE: "FAIR: INDICATES FEW OR NO CLOUDS BELOW 12,000 FEET WITH NO
SIGNIFICANT WEATHER AND/OR OBSTRUCTIONS TO VISIBILITY.

MSZ001>002-007>008-010>013-018>021-025>028-034>036-281800-
NORTHWEST MISSISSIPPI

CITY           SKY/WX    TMP DP  RH WIND       PRES   REMARKS
CLARKSDALE     PTSUNNY   34  23  64 N8        30.55S WCI  27
CLEVELAND      CLOUDY    39  27  62 NE8       30.52S WCI  33
GREENWOOD        N/A    N/A N/A N/A MISG      30.49S
GREENVILLE     SUNNY     40  27  59 NE9       30.50S WCI  34
OLIVE BRANCH   CLOUDY    32  18  55 NE12      30.54F WCI  23
OXFORD         FAIR      37  18  44 E7        30.53S WCI  32
TUNICA         CLOUDY    32  21  64 NE8       30.56S WCI  25
$$

MSZ003>006-009-014>017-022>024-029>033-037>039-281800-
NORTHEAST MISSISSIPPI

CITY           SKY/WX    TMP DP  RH WIND       PRES   REMARKS
COLUMBUS AFB   NOT AVBL
CORINTH        FAIR      39  16  38 NE7       30.53F WCI  34
GOLDN TRIANGLE MOSUNNY   45  27  49 SE9       30.49F
STARKVILLE     FAIR      45  30  57 E5        30.49F
TUPELO         MOSUNNY   40  19  43 E6        30.52F
$$

MSZ040-058-281800-
CENTRAL MISSISSIPPI

CITY           SKY/WX    TMP DP  RH WIND       PRES   REMARKS
JACKSON INTL   PTSUNNY   52  27  38 E5        30.43F
JACKSON HAWKNS CLOUDY    49  25  39 E5        30.44F
MERIDIAN KEY   SUNNY     55  33  43 SE10G24   30.46F
MERIDIAN NAS   SUNNY     54  32  43 E10       30.48F
VICKSBURG      CLOUDY    46  27  47 VRB5      30.46F
$$

MSZ059>079-281800-
SOUTH MISSISSIPPI

CITY           SKY/WX    TMP DP  RH WIND       PRES   REMARKS
BROOKHAVEN     FAIR      55  34  44 SE9       30.43F
HATTIESBURG    SUNNY     55  34  45 E12       30.43F
MCCOMB         SUNNY     55  34  45 SE12G18   30.41S
NATCHEZ        CLOUDY    54  32  43 E9        30.41F
PINE BELT      SUNNY     55  34  44 E16       30.43F
$$

MSZ080>082-281800-
COASTAL MISSISSIPPI

CITY           SKY/WX    TMP DP  RH WIND       PRES   REMARKS
BAY ST LOUIS   SUNNY     57  30  35 E8        30.41F
BILOXI         NOT AVBL
PASCAGOULA     MOSUNNY   57  36  45 VRB7      30.42F
GULFPORT       SUNNY     57  37  47 E8        30.41F
$$



USA.gov is the U.S. government's official web portal to all federal, state and local government web resources and services.